SCP
0 0 0 0 0 0 0 0 0 0 0 0 0 0 0 0 0 0 0 0 0 0 0 0 0 0 0 0 0 0 0 0 0 0 0 0 0 0
0 0 0 0 0 0 0 0 0 0 0 0 0 0 0 0 0 0 0 0 0 0 0 0 0 0 0 0 0 0 0 0 0 0 0 0 0 0
0 0 0 0 0 0 0 0 0 0 0 0 0 0 0 0 0 0 0 0 0 0 0 0 0 0 0 0 0 0 0 0 0 0 0 0 0 0
0 0 0 0 0 0 0 0 0 0 0 0 0 0 0 0 0 0 0 0 0 0 0 0 0 0 0 0 0 0 0 0 0 0 0 0 0 0
0 0 0 0 0 0 0 0 0 0 0 0 0 0 0 0 0 0 0 0 0 0 0 0 0 0 0 0 0 0 0 0 0 0 0 0 0 0
0 0 0 0 0 0 0 0 0 0 0 0 0 0 0 0 0 0 0 0 0 0 0 0 0 0 0 0 0 0 0 0 0 0 0 0 0 0
0 0 0 0 0 0 0 0 0 0 0 0 0 0 0 0 0 0 0 0 0 0 0 0 0 0 0 0 0 0 0 0 0 0 0 0 0 0
0 0 0 0 0 0 0 0 0 0 0 0 0 0 0 0 0 0 0 0 0 0 0 0 0 0 0 0 0 0 0 0 0 0 0 0 0 0
0 0 0 0 0 0 0 0 0 0 0 0 0 0 0 0 0 0 0 0 0 0 0 0 0 0 0 0 0 0 0 0 0 0 0 0 0 0
0 0 0 0 0 -0 0 0 0 0 0 0 0 0 0 0 0 0 0 0 0 0 0 0 0 0 0 0 0 0 0 0 0 0 0 0 0 0
0 0 0 0 0 0 0 0 0 0 0 0 0 0 0 0 0 0 0 0 0 0 0 0 0 0 0 0 0 0 0 0 0 0 0 0 0 0
0 0 0 0 0 0 0 0 0 0 0 0 0 0 0 0 0 0 0 0 0 0 0 0 0 0 0 0 0 0 0 0 0 0 0 0 0 0
0 0 0 0 0 0 0 0 0 0 0 0 0 0 0 0 0 0 0 0 0 0 0 0 0 0 0 0 0 0 0 0 0 0 0 0 0 0
0 0 0 0 0 0 0 0 0 0 0 0 0 0 0 0 0 0 0 0 0 0 0 0 0 0 0 0 0 0 0 0 0 0 0 0 0 0
0 0 0 0 0 0 0 0 0 0 0 0 0 0 0 0 0 0 0 0 0 0 0 0 0 0 0 0 0 0 0 0 0 0 0 0 0 0
0 0 0 0 0 0 0 0 0 0 0 0 0 0 0 0 0 0 0 0 0 0 0 0 0 0 0 0 0 0 0 0 0 0 0 0 0 0
0 0 0 0 0 0 0 0 0 0 0 0 0 0 0 0 0 0 0 0 0 0 0 0 0 0 0 0 0 0 0 0 0 0 0 0 0 0
0 0 0 0 0 0 0 0 0 0 0 0 0 0 0 0 0 0 0 0 0 0 0 0 0 0 0 0 0 0 0 0 0 0 0 0 0 0
0 0 0 0 0 0 0 0 0 0 0 0 0 0 0 0 0 0 0 0 0 0 0 0 0 0 0 0 0 0 0 0 0 0 0 0 0 0
0 0 0 0 0 0 0 0 0 0 0 0 0 0 0 0 0 0 0 0 0 0 0 0 0 0 0 0 0 0 0 0 0 0 0 0 0 0
0 0 0 0 0 0 0 0 0 0 0 0 0 0 0 0 0 0 0 0 0 0 0 0 0 0 0 0 0 0 0 0 0 0 0 0 0 0
0 0 0 0 0 0 0 0 0 0 0 0 0 0 0 0 0 0 0 0 0 0 0 0 0 0 0 0 0 0 0 0 0 0 0 0 0 0
0 0 0 0 0 0 0 0 0 0 0 0 0 0 0 0 0 0 0 0 0 0 0 0 0 0 0 0 0 0 0 0 0 0 0 0 0 0
Wind_Speed
7 7 5 4 4 4 3 2 2 1 1 3 3 3 4 4 6 5 5 9 11 11 11 11 11 12 12 12 13 13 13 13 13 13 13 14 14 14
5 6 5 4 4 4 4 3 2 2 0 1 2 3 4 4 6 5 5 10 10 11 11 11 11 11 11 12 12 12 12 12 12 13 13 13 14 14
5 6 5 4 4 3 3 3 2 1 0 1 2 3 3 5 6 6 5 5 6 11 12 11 11 10 11 12 12 12 12 12 12 12 13 13 13 14
5 5 4 3 4 3 2 2 2 1 0 2 2 3 3 4 5 6 6 5 6 10 11 11 11 10 10 11 11 11 10 10 11 11 12 12 12 13
3 3 2 3 3 2 1 1 1 1 0 1 3 2 3 3 4 5 6 5 6 7 8 9 11 11 11 10 10 9 9 8 9 10 10 11 11 11
3 2 1 1 1 1 1 1 1 1 1 2 2 3 3 3 3 4 5 5 5 5 6 8 9 10 10 10 9 9 9 8 8 9 9 9 10 10
4 3 2 1 1 1 2 2 2 1 2 2 2 2 3 3 3 3 4 6 5 2 5 5 5 5 6 7 8 9 9 9 9 8 9 9 9 9
4 4 3 3 4 5 6 5 3 3 3 2 2 3 4 4 3 3 3 4 5 2 4 6 4 5 5 4 7 10 9 9 9 9 9 9 9 9
2 3 3 3 4 4 6 7 5 5 5 4 4 5 4 3 4 5 4 4 5 4 3 5 3 5 5 5 9 9 10 10 10 10 10 10 9 9
2 2 3 4 4 5 6 6 6 4 4 4 6 7 7 7 5 4 4 6 6 4 3 3 4 4 5 5 6 9 10 11 11 11 11 10 9 9
4 4 4 4 7 7 5 6 7 5 4 5 7 9 10 10 7 3 3 3 4 3 1 3 3 4 4 4 5 7 9 10 11 11 11 11 10 8
5 4 5 6 9 7 3 3 5 6 7 8 7 6 5 5 3 4 3 3 3 4 1 2 3 3 4 3 4 5 6 7 9 10 11 11 10 6
4 4 5 10 10 7 3 3 5 6 5 5 5 6 5 4 4 2 3 4 3 4 2 2 3 2 3 5 4 4 4 5 5 6 8 10 10 7
4 4 6 10 8 6 4 4 5 3 2 3 4 5 5 6 6 6 4 4 6 7 5 3 3 2 3 4 4 5 5 4 5 5 6 7 7 8
3 7 8 7 6 5 7 8 6 4 4 4 4 4 4 6 6 5 3 3 4 4 4 4 4 3 2 3 4 4 5 4 5 5 5 5 5 6
3 5 5 6 6 6 6 6 5 4 3 3 4 5 5 4 4 3 3 4 4 3 2 2 3 3 2 3 3 4 4 4 5 5 4 4 4 5
3 3 4 5 6 6 5 5 5 5 5 5 5 5 5 5 4 4 3 2 3 4 5 3 2 2 4 3 3 3 4 3 4 4 4 4 4 5
3 3 3 4 4 4 5 5 5 6 6 6 5 5 5 5 5 4 3 3 3 3 4 3 4 3 1 2 3 3 3 3 3 4 3 4 4 4
3 3 3 3 3 4 4 4 4 5 5 5 5 5 5 5 4 4 4 4 4 4 4 3 2 3 4 4 2 1 2 3 3 3 3 3 3 4
2 2 2 3 3 3 4 4 5 6 5 5 5 5 5 5 4 5 5 5 4 4 4 3 3 3 2 3 4 2 2 3 3 3 4 3 3 3
2 2 2 2 3 3 4 4 5 5 6 5 5 6 5 5 5 5 5 6 4 4 5 5 5 5 3 2 3 3 2 2 2 2 4 3 3 4
1 2 2 3 3 4 4 4 5 5 6 5 5 5 5 5 5 6 6 5 4 4 4 4 5 2 1 2 3 4 4 3 2 3 4 3 3 4
1 1 2 3 3 3 4 5 6 5 5 5 5 5 6 5 5 5 5 5 4 5 5 4 4 3 3 3 3 3 5 5 4 3 2 3 6 7
Wind_Direction
70 68 64 49 47 50 56 71 115 93 -0 325 321 328 337 329 338 341 333 331 331 330 324 319 317 317 316 314 311 307 302 300 299 297 296 295 295 296
72 72 65 55 51 49 55 56 67 122 139 294 290 302 317 328 334 332 321 326 325 324 322 320 316 315 317 316 314 310 304 300 297 294 293 292 292 293
63 72 67 63 58 47 50 54 52 68 103 293 279 294 304 319 329 328 320 317 315 316 317 316 316 317 317 317 315 311 308 304 300 297 295 293 293 292
61 66 63 66 57 43 42 40 34 33 117 303 300 303 297 309 316 317 319 318 312 308 311 312 317 320 318 315 314 310 307 304 302 299 297 297 296 295
60 65 62 66 51 30 21 11 352 3 292 279 294 291 292 307 320 316 318 315 317 311 310 315 320 322 320 318 317 314 310 309 306 303 300 300 300 301
49 52 53 72 44 348 342 331 316 324 303 290 291 294 291 298 303 318 328 330 323 320 323 321 320 323 325 326 326 327 324 320 316 310 301 295 295 295
33 24 5 20 24 351 332 308 295 299 307 306 303 301 302 310 321 322 315 321 313 314 321 320 323 324 328 330 331 333 330 327 323 315 307 300 294 290
21 2 351 10 360 355 348 339 304 272 280 280 284 294 293 290 293 305 312 326 316 320 323 310 317 316 323 325 327 330 331 330 327 322 314 307 301 294
11 352 347 351 353 339 333 333 323 293 252 234 261 272 277 283 298 302 303 302 288 300 319 299 306 309 317 318 326 332 336 336 334 331 326 320 314 306
352 333 329 331 339 338 328 327 322 309 280 247 250 266 268 273 259 264 291 297 284 268 237 281 303 308 314 313 321 335 341 343 343 341 338 334 329 321
353 348 335 326 324 334 329 326 327 324 309 286 272 276 277 276 261 243 265 289 308 310 233 270 296 308 304 301 319 336 342 344 347 349 350 349 344 335
342 343 344 336 328 330 316 313 319 319 332 336 335 330 318 313 290 227 244 266 290 297 275 271 294 317 311 301 314 334 345 343 345 351 355 356 355 350
335 335 332 334 335 337 318 272 280 296 311 320 325 333 339 342 341 310 237 230 250 267 272 265 288 297 292 302 311 325 342 345 347 351 354 357 0 1
319 320 318 330 346 5 11 356 343 344 343 347 348 344 340 336 329 322 292 246 239 255 273 252 265 278 299 303 308 321 332 346 349 349 352 353 360 1
305 312 328 352 13 25 27 25 23 18 9 360 344 328 314 307 308 316 320 309 281 257 256 231 234 261 263 282 302 318 324 334 348 347 351 359 1 359
339 339 359 26 38 28 19 18 19 11 359 341 323 313 315 324 335 342 336 341 335 327 321 272 250 243 267 277 289 314 324 323 337 344 342 352 6 7
340 11 25 21 19 14 8 5 3 5 3 350 341 337 337 342 341 339 333 331 332 322 323 328 318 264 248 271 305 319 327 330 336 338 339 350 7 8
56 44 29 20 14 4 356 350 352 357 350 342 340 340 338 337 334 338 337 333 328 316 314 318 329 328 305 225 225 302 326 330 330 337 341 341 352 4
63 43 23 9 1 355 351 344 339 336 333 336 339 339 337 334 337 343 346 338 333 323 317 319 322 331 333 332 333 213 304 326 329 337 345 336 334 343
42 29 9 357 350 346 343 339 334 337 341 341 341 341 341 335 338 342 343 336 325 319 321 327 333 321 298 308 310 311 278 298 325 336 340 320 303 309
17 8 354 346 342 338 337 335 333 334 337 335 338 339 339 334 332 335 333 333 331 325 326 328 325 312 272 267 288 310 316 263 267 306 330 331 336 350
350 345 342 340 338 338 337 336 335 337 340 339 336 334 332 326 327 329 330 331 326 319 309 312 328 337 358 343 332 329 332 333 287 251 248 265 316 340
318 327 332 337 340 338 338 337 337 333 335 334 330 329 328 326 323 322 323 325 325 332 335 335 347 358 3 354 339 333 340 345 343 335 323 254 251 264